Location: Cumbre Roja
(10.2766°N, 67.0675°W)
Time: 02:06:04
(UTC+00:00)

GPS 2-17 Rocket1 - Pass Details

Date: 18 November 2025
Orbit: 546 x 617 km, 20.3° (Epoch: 08 December)

Event Time Altitude Azimuth Distance (km) Brightness Sun altitude
Rises 22:31:28 0° 239° (WSW) 2,818 8.4 -7.6°
Reaches altitude 10° 22:33:50 10° 233° (SW) 1,927 7.0 -8.1°
Maximum altitude 22:38:12 48° 159° (SSE) 795 3.6 -9.1°
Enters shadow 22:42:12 12° 86° (E) 1,803 4.8 -10.1°
